#timestamp,LO_Frequency,Hit,StdDev 
1582322415.7,286046996.5,N
1582322435.5,286046999.6,N
1582322455.4,286046997.5,N
1582322475.2,286047001.7,N
1582322495.0,286047011.7,N
1582322495.9,286047011.7,N
1582322515.8,286047019.5,Y
1582322535.6,286047021.1,P
1582322555.5,286047010.9,N
1582322575.3,286047008.9,N
1582322595.1,286047006.6,N
1582322615.9,286047005.8,N
1582322635.7,286047005.0,N
1582322655.5,286047002.1,N
1582322675.4,286046998.9,N
1582322695.2,286046998.8,N
1582322715.1,286046996.9,N
1582322716.0,286046996.9,N
1582322735.8,286047005.8,N
1582322755.6,286047016.9,N
1582322775.5,286047015.5,N
1582322795.3,286047006.4,N
1582322815.1,286047013.8,N
1582322835.9,286047012.3,N
1582322855.7,286047006.6,N
1582322875.6,286047007.6,N
1582322895.4,286047006.0,N
1582322915.2,286047002.0,N
1582322935.1,286046997.9,N
1582322936.0,286046997.9,N
1582322955.8,286047000.7,N
1582322975.7,286046999.7,N
1582322995.5,286046997.6,N
1582323015.3,286046996.5,N
1582323035.2,286046993.3,N
1582323055.9,286046999.8,N
1582323075.7,286047006.0,N
1582323095.6,286047010.6,N
1582323115.4,286047003.8,N
1582323135.2,286047010.0,N
1582323155.1,286047021.3,Y
1582323156.0,286047021.3,P
1582323175.8,286047006.8,N
1582323195.7,286047010.7,N
1582323215.5,286047013.4,N
1582323235.3,286047015.4,N
1582323255.2,286047013.5,N
1582323275.0,286047014.3,N
1582323275.9,286047014.3,N
1582323295.8,286047014.6,Y
1582323315.6,286046998.9,P
1582323335.4,286046999.9,N
1582323355.3,286046997.9,N
1582323375.1,286046993.3,N
1582323395.8,286046996.5,N
1582323415.7,286046993.3,N
1582323435.5,286046994.4,N
1582323455.4,286046988.8,N
1582323475.2,286046984.1,N
1582323495.0,286046987.7,N
1582323495.9,286046987.7,N
1582323515.8,286046985.8,N
1582323535.6,286046985.7,N
1582323555.4,286046986.3,N
1582323575.3,286046988.8,N
1582323595.1,286047004.4,N
1582323615.9,286047013.2,N
1582323635.7,286047009.6,N
1582323655.5,286047010.4,N
1582323675.4,286047010.6,N
1582323695.2,286047004.5,N
1582323715.1,286047011.0,N
1582323716.0,286047011.0,N
1582323735.8,286047007.3,N
1582323755.6,286047000.9,N
1582323775.5,286046997.5,N
1582323795.3,286046995.1,N
1582323815.1,286046999.9,N
1582323835.9,286047008.7,N
1582323855.7,286047005.3,N
1582323875.6,286047012.0,N
1582323895.4,286047021.1,N
1582323915.2,286047018.2,N
1582323935.1,286047017.7,N
1582323936.0,286047017.7,N
1582323955.8,286047008.7,N
1582323975.7,286047010.0,N
1582323995.5,286047009.0,N
1582324015.3,286047004.3,N
1582324035.2,286047001.2,N
1582324055.0,286047005.6,N
1582324055.9,286047005.6,N
1582324075.7,286046995.0,N
1582324095.6,286046995.9,N
1582324115.4,286047002.4,N
1582324135.3,286047011.6,N
1582324155.1,286047014.6,N
1582324175.9,286047004.1,N
1582324195.7,286046997.4,N
1582324215.5,286046996.7,N
1582324235.4,286046994.0,N
1582324255.2,286046993.4,N
1582324275.0,286046993.1,N
1582324275.9,286046993.1,N
1582324295.8,286046989.2,N
1582324315.6,286046992.8,N
1582324335.5,286046995.8,N
1582324355.3,286046995.5,N
1582324375.1,286046990.5,N
1582324395.9,286046992.8,N
1582324415.7,286046991.0,N
1582324435.5,286046985.5,N
1582324455.4,286046986.4,N
1582324475.2,286046986.6,N
1582324495.0,286046983.3,N
1582324496.0,286046983.3,N
1582324515.8,286046983.5,N
1582324535.6,286046981.1,N
1582324555.5,286046982.1,N
1582324575.3,286046977.6,N
1582324595.1,286046975.5,N
1582324615.9,286046982.0,N
1582324635.7,286046981.1,N
1582324655.6,286046987.8,N
1582324675.4,286047003.8,N
1582324695.2,286047004.8,N
1582324715.1,286047006.9,N
1582324716.0,286047006.9,N
1582324735.8,286047011.9,N
1582324755.6,286047007.3,N
1582324775.5,286047003.9,N
1582324795.3,286046996.8,N
1582324815.2,286046995.2,N
1582324835.9,286046999.8,N
1582324855.7,286047009.2,N
1582324875.6,286047006.2,N
1582324895.4,286047007.0,N
1582324915.3,286047004.4,N
1582324935.1,286047002.8,N
1582324955.8,286046995.6,N
1582324975.7,286046998.4,N
1582324995.5,286047002.2,N
1582325015.4,286047005.4,N
1582325035.2,286047001.6,N
1582325055.0,286047003.7,N
1582325055.9,286047003.7,N
1582325075.8,286047010.5,N
1582325095.6,286047010.3,N
1582325115.4,286047007.5,N
1582325135.3,286047002.6,N
1582325155.1,286047001.1,N
1582325175.9,286047000.2,N
1582325195.7,286046996.9,N
1582325215.5,286047002.4,N
1582325235.4,286047001.3,N
1582325255.2,286046997.3,N
1582325275.0,286046994.2,N
1582325275.9,286046994.2,N
1582325295.8,286046997.9,N
1582325315.6,286046997.1,N
1582325335.5,286047004.2,N
1582325355.3,286046996.5,N
1582325375.1,286046996.0,N
1582325395.9,286046996.2,N
1582325415.7,286046987.0,N
1582325435.5,286046992.9,N
1582325455.4,286046993.3,N
1582325475.2,286046991.5,N
1582325495.1,286046986.9,N
1582325496.0,286046986.9,N
1582325515.8,286046993.9,N
1582325535.6,286046990.8,N
1582325555.5,286046990.4,N
1582325575.3,286046993.6,N
1582325595.1,286047002.5,N
1582325615.9,286046997.8,N
1582325635.7,286046992.0,N
1582325655.6,286046990.8,N
1582325675.4,286046990.4,N
1582325695.2,286046994.7,N
1582325715.1,286046990.1,N
1582325716.0,286046990.1,N
1582325735.8,286046990.6,N
1582325755.7,286046989.0,N
1582325775.5,286046998.2,N
1582325795.3,286047001.2,N
1582325815.2,286046998.6,N
1582325835.9,286046997.8,N
1582325855.7,286046998.8,N
1582325875.6,286046998.8,N
1582325895.4,286046997.4,N
1582325915.3,286047002.8,N
1582325935.1,286046995.5,N
1582325936.0,286046995.5,N
1582325955.8,286046995.0,N
1582325975.7,286046990.6,N
1582325995.5,286046992.4,N
